Regional Weather Roundup
Issued by NWS

Home | Current Version | Previous Version | Text Only | Print | Product List | Glossary On
Versions: 1 2 3 4 5 6 7 8 9 10 11 12 13 14 15 16 17 18 19 20 21 22 23 24 25 26 27
000
ASUS45 KREV 262110
RWRNV
NEVADA REGIONAL WEATHER ROUNDUP
NATIONAL WEATHER SERVICE RENO NV
200 PM PDT TUE JUL 26 2016

NOTE: "FAIR" INDICATES FEW OR NO CLOUDS BELOW 12,000 FEET WITH NO
SIGNIFICANT WEATHER AND/OR OBSTRUCTIONS TO VISIBILITY.

NVZ001-003-004-262200-
WESTERN NEVADA

CITY           SKY/WX    TMP DP  RH WIND       PRES   REMARKS
RENO           SUNNY     94  25   8 CALM      30.10F
CARSON CITY    FAIR      95  18   6 SW3       30.13F
MINDEN         FAIR      95  25   8 W7        30.12F
PYRAMID LAKE     N/A     84 N/A N/A N7          N/A
FALLON         CLOUDY    97  29   9 W8        30.06F
LOVELOCK       SUNNY     97  27   8 VRB3      30.05F
HAWTHORNE      SUNNY     97  25   7 NW12      30.06F
$$

NVZ002-CAZ072-073-262200-
NORTHERN AND CENTRAL SIERRA

CITY           SKY/WX    TMP DP  RH WIND       PRES   REMARKS
S. LAKE TAHOE  SUNNY     84  31  14 NE10      30.26F
TRUCKEE        SUNNY     88  27  11 W7        30.23F
SQUAW VLY 8000 NOT AVBL
MAMMOTH LAKES    N/A     90  25   9 SE12G18   30.30F
BRIDGEPORT       N/A     92  15   6 SW9       30.25F
$$

NVZ030-031-036-262200-
NORTHERN NEVADA

CITY           SKY/WX    TMP DP  RH WIND       PRES   REMARKS
ELKO           SUNNY     97   8   4 W15G30    30.12F
WINNEMUCCA     SUNNY     95  26   8 VRB3      30.08F
WENDOVER       SUNNY     97  34  11 SE10      30.03F
$$

NVZ035-037-262200-
CENTRAL NEVADA

CITY           SKY/WX    TMP DP  RH WIND       PRES   REMARKS
ELY            SUNNY     94  16   6 SW8G16    30.20F
EUREKA           N/A     92  20   7 CALM      30.17F
$$

NVZ013-014-262200-
SOUTH CENTRAL NEVADA

CITY           SKY/WX    TMP DP  RH WIND       PRES   REMARKS
TONOPAH        SUNNY     96  23   7 S9        30.16F
$$

NVZ017-020-022-262200-
SOUTHERN NEVADA

CITY           SKY/WX    TMP DP  RH WIND       PRES   REMARKS
LAS VEGAS      MOSUNNY  109  41  10 VRB6      29.83F
N. LAS VEGAS   SUNNY    107  49  14 SW9G16    29.86F
NELLIS AFB     SUNNY    107  50  14 S5        29.83F
HENDERSON      SUNNY    107  52  16 NE9       29.91F HX 105
MERCURY        SUNNY    104  43  12 VRB7G20   29.96F
$$




USA.gov is the U.S. government's official web portal to all federal, state and local government web resources and services.